Location: Stoke Bliss
(52.2667°N, 2.5167°W)
Time: 14:37:16
(UTC+00:00)

USA 234 - Pass Details

Date: 03 March 2021
Orbit: 1102 x 1105 km, 123.0° (Epoch: 13 April)

Event Time Altitude Azimuth Distance (km) Brightness Sun altitude
Exits shadow 21:27:18 86° 313° (NW) 1,112 3.1 -32.0°
Drops below altitude 10° 21:33:48 10° 248° (WSW) 2,960 5.8 -32.7°
Sets 21:36:16 0° 248° (WSW) 3,917 6.5 -33.0°
